This demonstration page uses our WeatherBlox Daily Observations layout. Learn more.

Left ArrowRight Arrow

41.55636, -103.73856

Hourly Observations for June 28, 2015

Temp ( °F °C ) Dew Point ( °F °C ) Humidity (%) Winds ( mph kmh ) Pressure ( in mb ) Visibility ( mi km ) Precip ( " mm )
12:53 am 00:53 Clear 63 17.2 54 12.2 73 73 ENE 5 7 30.01 1016 10 16.0934 0 0
1:53 am 01:53 Clear 64 17.8 52 11.1 65 65 E 5 7 29.99 1016 10 16.0934 0 0
2:53 am 02:53 Clear 61 16.1 54 12.2 78 78 Calm 29.99 1016 10 16.0934 0 0
3:53 am 03:53 Clear 58 14.4 52 11.1 81 81 NNE 6 9 29.98 1015 10 16.0934 0 0
4:53 am 04:53 Clear 57 13.9 52 11.1 83 83 N 3 6 29.98 1015 10 16.0934 0 0
5:53 am 05:53 Sunny 56 13.3 52 11.1 87 87 NNW 7 11 30 1016 10 16.0934 0 0
6:53 am 06:53 Sunny 64 17.8 55 12.8 73 73 Calm 30.01 1016 10 16.0934 0 0
7:53 am 07:53 Sunny 68 20 55 12.8 63 63 Calm 30.02 1017 10 16.0934 0 0
8:53 am 08:53 Sunny 72 22.2 54 12.2 53 53 S 5 7 30.03 1017 10 16.0934 0 0
9:53 am 09:53 Sunny 77 25 55 12.8 47 47 VRB 6 9 30.02 1017 10 16.0934 0 0
10:53 am 10:53 Sunny 81 27.2 51 10.6 35 35 SE 5 7 30.01 1016 10 16.0934 0 0
11:53 am 11:53 Sunny 85 29.4 52 11.1 32 32 VRB 5 7 30 1016 10 16.0934 0 0
12:53 pm 12:53 Sunny 88 31.1 52 11.1 29 29 S 7 11 29.98 1015 10 16.0934 0 0
1:53 pm 13:53 Sunny 89 31.7 50 10 26 26 VRB 6 9 29.96 1015 10 16.0934 0 0
2:53 pm 14:53 Sunny 90 32.2 51 10.6 26 26 VRB 5 7 29.94 1014 10 16.0934 0 0
3:53 pm 15:53 Sunny 89 31.7 51 10.6 27 27 SSE 9 15 29.95 1014 10 16.0934 0 0
4:53 pm 16:53 Sunny 90 32.2 51 10.6 26 26 SSE 7 11 29.93 1014 10 16.0934 0 0
5:53 pm 17:53 Sunny 89 31.7 50 10 26 26 S 8 13 29.93 1014 10 16.0934 0 0
7:53 pm 19:53 Sunny 80 26.7 52 11.1 38 38 E 7 11 29.94 1014 10 16.0934 0 0
8:53 pm 20:53 Clear 73 22.8 56 13.3 55 55 undefined N/A 29.96 1015 10 16.0934 0 0
9:53 pm 21:53 Clear 71 21.7 55 12.8 57 57 ENE 7 11 29.97 1015 10 16.0934 0 0
10:53 pm 22:53 Clear 70 21.1 55 12.8 59 59 E 5 7 29.98 1015 10 16.0934 0 0
11:53 pm 23:53 Partly Cloudy 66 18.9 57 13.9 73 73 E 5 7 29.99 1016 10 16.0934 0 0

Powered by AerisWeather